This is the latest recevied weather packets stored in our database for station/object 9W4GWK-G. If no packets are shown the sender has not sent any weather packets the latest 1 day(s).
| Time | Temp. | Humidity | Pressure | Rain* | Wind** | Luminosity | Snow |
|---|---|---|---|---|---|---|---|
| 1777870782 | 32.22° C | 67% | 1012.2 hPa | - | - | - | - |
| 1777869880 | 32.78° C | 65% | 1012.2 hPa | - | - | - | - |
| 1777868978 | 32.22° C | 65% | 1012.2 hPa | - | - | - | - |
| 1777868076 | 32.22° C | 65% | 1012.1 hPa | - | - | - | - |
| 1777867173 | 32.22° C | 65% | 1012.1 hPa | - | - | - | - |
| 1777866271 | 32.22° C | 66% | 1012.1 hPa | - | - | - | - |
| 1777865369 | 32.22° C | 65% | 1012.2 hPa | - | - | - | - |
| 1777864467 | 32.22° C | 65% | 1012.1 hPa | - | - | - | - |
| 1777863564 | 32.22° C | 66% | 1012.2 hPa | - | - | - | - |
| 1777862662 | 31.67° C | 65% | 1012.3 hPa | - | - | - | - |
| 1777861760 | 31.67° C | 66% | 1012.4 hPa | - | - | - | - |
| 1777860858 | 31.67° C | 65% | 1012.8 hPa | - | - | - | - |
| 1777859956 | 31.67° C | 66% | 1012.8 hPa | - | - | - | - |
| 1777859054 | 31.67° C | 65% | 1012.5 hPa | - | - | - | - |
| 1777858152 | 31.67° C | 65% | 1012.4 hPa | - | - | - | - |
| 1777857250 | 31.11° C | 66% | 1012.2 hPa | - | - | - | - |
| 1777856348 | 31.11° C | 66% | 1012.1 hPa | - | - | - | - |
| 1777855445 | 31.67° C | 66% | 1011.6 hPa | - | - | - | - |
| 1777854543 | 31.67° C | 66% | 1011.4 hPa | - | - | - | - |
| 1777853641 | 31.67° C | 66% | 1011.1 hPa | - | - | - | - |
| 1777852739 | 31.11° C | 67% | 1010.7 hPa | - | - | - | - |
| 1777851837 | 30.56° C | 67% | 1010.7 hPa | - | - | - | - |
| 1777850936 | 31.11° C | 64% | 1010.7 hPa | - | - | - | - |
| 1777850033 | 31.67° C | 67% | 1010.6 hPa | - | - | - | - |
| 1777849131 | 31.67° C | 67% | 1010.2 hPa | - | - | - | - |
* Rain since midnight (hover to see other rain measurements)
** Current wind speed in m/s (hover to see current wind gust speed)